N5CSU Weather Reports


time (UTC)temp
C
wind
direction
speed
KPH
gust
KPH
rain 1hr
cm
rain 24hr
cm
rain mn
cm
humidity
%
barometer
mb
20260507120513 11 182 0.0 0.0 0.00 0.00 0.00 95 1020.6
20260507120010 11 182 0.0 0.0 0.00 0.00 0.00 95 1020.5
20260507115506 11 184 0.0 0.0 0.00 0.00 0.00 95 1020.2
20260507115002 11 184 0.0 0.0 0.00 0.00 0.00 94 1020.3
20260507114458 11 184 0.0 0.0 0.00 0.00 0.00 94 1020.4
20260507113955 11 184 0.0 0.0 0.00 0.00 0.00 94 1020.2
20260507113452 11 184 0.0 0.0 0.00 0.00 0.00 94 1020.2
20260507112949 11 184 0.0 0.0 0.00 0.00 0.00 94 1019.9
20260507112447 11 184 0.0 0.0 0.00 0.00 0.00 94 1020.0
20260507111944 11 184 0.0 0.0 0.00 0.00 0.00 94 1020.0
20260507111441 11 184 0.0 0.0 0.00 0.00 0.00 94 1019.9
20260507110937 11 184 0.0 0.0 0.00 0.00 0.00 94 1020.0
20260507110433 11 184 0.0 0.0 0.00 0.00 0.00 94 1019.8
20260507105930 11 184 0.0 0.0 0.00 0.00 0.00 94 1019.8
20260507105427 11 184 0.0 0.0 0.00 0.00 0.00 94 1019.8
20260507104923 11 184 0.0 0.0 0.00 0.00 0.00 94 1019.3
20260507104421 11 184 0.0 0.0 0.00 0.00 0.00 94 1019.1
20260507103916 11 184 0.0 0.0 0.00 0.00 0.00 93 1019.0
20260507103413 11 184 0.0 0.0 0.00 0.00 0.00 93 1019.0
20260507102909 11 184 0.0 0.0 0.00 0.00 0.00 93 1019.0
20260507102406 11 184 0.0 0.0 0.00 0.00 0.00 93 1018.8
20260507101903 11 184 0.0 0.0 0.00 0.00 0.00 93 1018.8
20260507101403 11 184 0.0 0.0 0.00 0.00 0.00 92 1018.5
20260507100900 11 184 0.0 0.0 0.00 0.00 0.00 92 1018.5
20260507100357 11 184 0.0 0.0 0.00 0.00 0.00 92 1018.5
20260507095856 11 184 0.0 0.0 0.00 0.00 0.00 92 1018.4
20260507095352 11 184 0.0 0.0 0.00 0.00 0.00 92 1018.5
20260507094849 11 184 0.0 0.0 0.00 0.00 0.00 91 1018.4
20260507094345 11 184 0.0 0.0 0.00 0.00 0.00 91 1018.4
20260507093843 11 184 0.0 0.0 0.00 0.00 0.00 91 1018.3
20260507093341 11 184 0.0 0.0 0.00 0.00 0.00 90 1018.2
20260507092839 11 184 0.0 0.0 0.00 0.00 0.00 90 1018.4
20260507092335 12 183 0.0 0.0 0.00 0.00 0.00 90 1018.2
20260507091831 12 183 0.0 0.0 0.00 0.00 0.00 90 1018.3
20260507091328 12 182 0.0 0.0 0.00 0.00 0.00 90 1018.0
20260507090823 12 182 0.0 0.0 0.00 0.00 0.00 90 1018.3
20260507090320 12 182 0.0 0.0 0.00 0.00 0.00 90 1018.0
20260507085817 12 182 0.0 0.0 0.00 0.00 0.00 90 1018.0
20260507085314 12 182 0.0 0.0 0.00 0.00 0.00 89 1018.1
20260507084811 12 182 0.0 0.0 0.00 0.00 0.00 89 1018.3
20260507084307 12 180 0.0 0.0 0.00 0.00 0.00 89 1018.1
20260507083805 12 180 0.0 0.0 0.00 0.00 0.00 89 1018.2
20260507083301 12 179 0.0 0.0 0.00 0.00 0.00 89 1018.0
20260507082757 12 181 0.0 0.0 0.00 0.00 0.00 89 1018.2
20260507082253 12 180 0.0 0.0 0.00 0.00 0.00 89 1018.1
20260507081750 12 180 0.0 0.0 0.00 0.00 0.00 89 1018.2
20260507081246 12 184 0.0 0.0 0.00 0.00 0.00 88 1018.0
20260507080743 13 184 0.0 0.0 0.00 0.00 0.00 88 1017.9
20260507080239 13 184 0.0 0.0 0.00 0.00 0.00 88 1017.9
20260507075735 13 175 0.0 0.0 0.00 0.00 0.00 87 1017.9
20260507075231 13 183 0.0 0.0 0.00 0.00 0.00 87 1017.7
20260507074727 13 178 0.0 0.0 0.00 0.00 0.00 87 1017.7
20260507074226 13 179 0.0 0.0 0.00 0.00 0.00 87 1017.4
20260507073722 13 182 0.0 0.0 0.00 0.00 0.00 87 1017.4
20260507073219 13 183 0.0 0.0 0.00 0.00 0.00 87 1017.2
20260507072717 13 180 0.0 0.0 0.00 0.00 0.00 87 1017.3
20260507072214 13 187 0.0 0.0 0.00 0.00 0.00 87 1017.2
20260507071711 13 194 0.0 0.0 0.00 0.00 0.00 87 1017.5
20260507071208 13 175 0.0 0.0 0.00 0.00 0.00 87 1017.5
20260507070705 13 174 0.0 0.0 0.00 0.00 0.00 87 1017.5
20260507070201 13 172 0.0 0.0 0.00 0.00 0.00 86 1017.5
20260507065657 13 176 0.0 0.0 0.00 0.00 0.00 86 1017.4
20260507065155 13 174 0.0 0.0 0.00 0.00 0.00 86 1017.6
20260507064652 13 182 0.0 0.0 0.00 0.00 0.00 85 1017.7
20260507064150 13 181 0.0 0.0 0.00 0.00 0.00 85 1017.5
20260507063648 13 183 0.0 0.0 0.00 0.00 0.00 84 1017.6
20260507063145 13 171 0.0 0.0 0.00 0.00 0.00 83 1017.5
20260507062641 13 160 0.0 0.0 0.00 0.00 0.00 83 1017.4
20260507062139 13 172 0.0 0.0 0.00 0.00 0.00 82 1017.6
20260507061637 13 170 0.0 0.0 0.00 0.00 0.00 82 1017.2
20260507061134 14 189 0.0 0.0 0.00 0.00 0.00 82 1017.4
20260507060632 14 176 0.0 0.0 0.00 0.00 0.00 81 1017.4
20260507060128 14 171 0.0 0.0 0.00 0.00 0.00 82 1017.4
20260507055624 14 173 0.0 0.0 0.00 0.00 0.00 81 1017.2
20260507055120 14 183 0.0 0.0 0.00 0.00 0.00 81 1017.4
20260507054616 14 151 0.0 0.0 0.00 0.00 0.00 81 1017.4
20260507054113 14 40 0.0 1.6 0.00 0.00 0.00 81 1017.4
20260507053611 15 156 1.6 1.6 0.00 0.00 0.00 81 1017.2
20260507053110 15 172 1.6 1.6 0.00 0.00 0.00 82 1017.3
20260507052607 15 158 0.0 0.0 0.00 0.00 0.00 82 1017.2
20260507052103 15 193 0.0 0.0 0.00 0.00 0.00 82 1017.4
20260507051601 15 162 0.0 0.0 0.00 0.00 0.00 81 1017.4
20260507051058 15 197 1.6 1.6 0.00 0.00 0.00 81 1017.4
20260507050554 15 168 0.0 0.0 0.00 0.00 0.00 82 1017.4
20260507050051 15 169 1.6 1.6 0.00 0.00 0.00 82 1017.4
20260507045548 15 188 0.0 0.0 0.00 0.00 0.00 81 1017.4
20260507045045 15 197 0.0 0.0 0.00 0.00 0.00 80 1017.7
20260507044541 15 177 0.0 0.0 0.00 0.00 0.00 80 1017.6
20260507044039 15 162 0.0 0.0 0.00 0.00 0.00 79 1017.6
20260507043534 15 131 0.0 1.6 0.00 0.00 0.00 80 1017.6
20260507043032 15 186 1.6 1.6 0.00 0.00 0.00 79 1017.6
20260507042527 15 19 0.0 3.2 0.00 0.00 0.00 79 1017.7
20260507042023 15 47 3.2 4.8 0.00 0.00 0.00 78 1018.0
20260507041521 15 192 0.0 0.0 0.00 0.00 0.00 78 1017.8
20260507041017 15 181 0.0 0.0 0.00 0.00 0.00 79 1017.8
20260507040514 15 183 0.0 0.0 0.00 0.00 0.00 80 1018.0
20260507040009 15 196 0.0 0.0 0.00 0.00 0.00 79 1017.8
20260507035506 15 188 0.0 0.0 0.00 0.00 0.00 80 1017.8
20260507035002 15 182 0.0 0.0 0.00 0.00 0.00 80 1017.7
20260507034459 15 192 0.0 0.0 0.00 0.00 0.00 80 1017.9
20260507033957 15 177 0.0 0.0 0.00 0.00 0.00 80 1017.9
20260507033456 15 193 0.0 0.0 0.00 0.00 0.00 80 1017.9
20260507032952 15 199 0.0 0.0 0.00 0.00 0.00 79 1017.9
20260507032449 15 196 0.0 0.0 0.00 0.00 0.00 79 1017.6
20260507031945 15 202 0.0 0.0 0.00 0.00 0.00 79 1017.6
20260507031441 15 199 0.0 1.6 0.00 0.00 0.00 80 1017.4
20260507030938 15 224 1.6 1.6 0.00 0.00 0.00 81 1017.5
20260507030436 15 184 0.0 0.0 0.00 0.00 0.00 81 1017.3
20260507025933 15 187 0.0 0.0 0.00 0.00 0.00 81 1017.3
20260507025430 15 187 0.0 0.0 0.00 0.00 0.00 81 1017.1
20260507024928 15 204 0.0 1.6 0.00 0.00 0.00 81 1017.0
20260507024425 15 187 0.0 0.0 0.00 0.00 0.00 80 1017.1
20260507023920 15 195 0.0 0.0 0.00 0.00 0.00 81 1016.9
20260507023418 15 178 0.0 0.0 0.00 0.00 0.00 81 1016.8
20260507022915 15 178 0.0 0.0 0.00 0.00 0.00 81 1016.7
20260507022412 15 186 0.0 0.0 0.00 0.00 0.00 82 1016.8
20260507021907 15 161 0.0 0.0 0.00 0.00 0.00 82 1016.8
20260507021404 15 184 0.0 0.0 0.00 0.00 0.00 82 1016.6
20260507020901 15 125 0.0 0.0 0.00 0.00 0.00 83 1016.5
20260507020357 15 190 0.0 0.0 0.00 0.00 0.00 83 1016.3
20260507015854 15 176 0.0 0.0 0.00 0.00 0.00 84 1016.0
20260507015352 15 173 0.0 0.0 0.00 0.00 0.00 84 1016.1
20260507014849 15 170 0.0 0.0 0.00 0.00 0.00 84 1016.0
20260507014345 15 183 0.0 0.0 0.00 0.00 0.00 84 1015.6
20260507013842 15 171 0.0 0.0 0.00 0.00 0.00 84 1015.5
20260507013339 15 168 0.0 0.0 0.00 0.00 0.00 84 1015.6
20260507012836 15 159 0.0 0.0 0.00 0.00 0.00 84 1015.4
20260507012332 15 191 0.0 0.0 0.00 0.00 0.00 84 1015.4
20260507011829 15 188 0.0 0.0 0.00 0.00 0.00 84 1015.3
20260507011326 15 193 0.0 0.0 0.00 0.00 0.00 84 1015.2
20260507010825 15 185 0.0 0.0 0.00 0.00 0.00 84 1015.3
20260507010321 15 140 0.0 1.6 0.00 0.00 0.00 84 1015.1
20260507005820 15 192 0.0 0.0 0.00 0.00 0.00 84 1014.9
20260507005316 15 174 0.0 0.0 0.00 0.00 0.00 84 1015.1
20260507004812 15 102 0.0 1.6 0.00 0.00 0.00 84 1015.0
20260507004310 15 164 0.0 0.0 0.00 0.00 0.00 84 1014.9
20260507003807 15 33 0.0 0.0 0.00 0.00 0.00 83 1014.9
20260507003301 15 33 0.0 0.0 0.00 0.00 0.00 83 1014.9
20260507002758 15 175 0.0 0.0 0.00 0.00 0.00 83 1015.0
20260507002253 15 185 0.0 0.0 0.00 0.00 0.00 83 1014.8
20260507001751 15 149 0.0 0.0 0.00 0.00 0.00 83 1014.7
20260507001249 15 163 0.0 0.0 0.00 0.00 0.00 82 1014.8
20260507000745 15 156 0.0 0.0 0.00 0.00 0.00 82 1014.6
20260507000241 15 199 0.0 0.0 0.00 0.00 0.00 82 1014.6
20260506235738 15 8 0.0 0.0 0.00 0.00 0.00 81 1014.6
20260506235232 16 8 0.0 0.0 0.00 0.00 0.00 81 1014.3
20260506234729 16 151 0.0 1.6 0.00 0.00 0.00 81 1014.4
20260506234227 16 61 0.0 1.6 0.00 0.00 0.00 81 1014.5
20260506233719 16 115 0.0 0.0 0.00 0.00 0.00 80 1014.5
20260506233215 16 172 0.0 1.6 0.00 0.00 0.00 81 1014.4
20260506232711 16 173 0.0 0.0 0.00 0.00 0.00 81 1014.4
20260506232206 16 167 0.0 0.0 0.00 0.00 0.00 80 1014.5
20260506231703 16 168 0.0 0.0 0.00 0.00 0.00 80 1014.1
20260506231202 16 173 0.0 0.0 0.00 0.00 0.00 79 1014.1
20260506230658 16 195 0.0 0.0 0.00 0.00 0.00 80 1014.3
20260506230155 16 187 0.0 0.0 0.00 0.00 0.00 80 1014.1
20260506225651 16 195 0.0 0.0 0.00 0.00 0.00 80 1014.0
20260506225149 16 173 0.0 0.0 0.00 0.00 0.00 80 1014.0
20260506224645 16 186 0.0 0.0 0.00 0.00 0.00 80 1014.1
20260506224142 16 147 0.0 0.0 0.00 0.00 0.00 80 1013.9
20260506223638 16 174 0.0 0.0 0.00 0.00 0.00 80 1013.9
20260506223134 16 174 0.0 0.0 0.00 0.00 0.00 79 1014.0
20260506222631 16 167 0.0 0.0 0.00 0.00 0.00 80 1013.9
20260506222127 16 179 0.0 0.0 0.00 0.00 0.00 81 1014.0
20260506221625 16 195 0.0 0.0 0.00 0.00 0.00 81 1013.9
20260506221123 16 201 0.0 0.0 0.00 0.00 0.00 81 1014.0
20260506220619 16 183 0.0 0.0 0.00 0.00 0.00 80 1013.7
20260506220114 16 170 0.0 0.0 0.00 0.00 0.00 80 1013.5
20260506215612 16 185 0.0 0.0 0.00 0.00 0.00 81 1013.6
20260506215107 16 188 0.0 0.0 0.00 0.00 0.00 81 1013.2
20260506214604 16 180 0.0 0.0 0.00 0.00 0.00 81 1013.5
20260506214101 16 179 0.0 0.0 0.00 0.00 0.00 81 1013.6
20260506213559 16 185 0.0 0.0 0.00 0.00 0.00 80 1013.6
20260506213051 16 175 0.0 0.0 0.00 0.00 0.00 80 1013.8
20260506212548 16 165 0.0 0.0 0.00 0.00 0.00 79 1013.7
20260506212043 16 171 0.0 0.0 0.00 0.00 0.00 80 1013.6
20260506211539 16 192 0.0 0.0 0.00 0.00 0.00 80 1013.7
20260506211036 16 192 0.0 0.0 0.00 0.00 0.00 80 1013.9
20260506210533 16 179 0.0 0.0 0.00 0.00 0.00 79 1013.7
20260506210030 16 176 0.0 0.0 0.00 0.00 0.00 80 1013.9
20260506205526 16 175 0.0 0.0 0.00 0.00 0.00 79 1013.8
20260506205021 16 176 0.0 0.0 0.00 0.00 0.00 81 1013.9
20260506204520 16 178 0.0 0.0 0.00 0.00 0.00 80 1014.3
20260506204016 16 192 0.0 0.0 0.00 0.00 0.00 80 1014.3
20260506203515 16 172 0.0 0.0 0.00 0.00 0.00 79 1014.2
20260506203010 16 182 0.0 0.0 0.00 0.00 0.00 80 1014.2
20260506202508 16 181 0.0 0.0 0.00 0.00 0.00 78 1014.1
20260506202003 16 208 0.0 0.0 0.00 0.00 0.00 80 1014.3
20260506201502 15 184 0.0 0.0 0.00 0.00 0.00 82 1014.2
20260506200952 15 193 0.0 0.0 0.00 0.00 0.00 83 1014.8
20260506200448 15 192 0.0 0.0 0.00 0.00 0.00 81 1014.4
20260506195945 15 179 0.0 0.0 0.00 0.00 0.00 82 1014.8
20260506195442 15 187 0.0 0.0 0.00 0.00 0.00 80 1014.9
20260506194938 15 187 0.0 0.0 0.00 0.00 0.00 82 1014.7
20260506194436 15 199 0.0 0.0 0.00 0.00 0.00 81 1014.3
20260506193932 15 180 0.0 0.0 0.00 0.00 0.00 81 1014.6
20260506193430 15 169 0.0 0.0 0.00 0.00 0.00 83 1014.5
20260506192926 15 196 0.0 0.0 0.00 0.00 0.00 85 1014.5
20260506192423 14 179 0.0 0.0 0.00 0.00 0.00 85 1014.7
20260506191920 14 179 0.0 1.6 0.00 0.00 0.00 85 1015.0
20260506191416 13 195 0.0 0.0 0.00 0.00 0.00 86 1015.4
20260506190914 13 181 0.0 0.0 0.00 0.00 0.00 87 1015.4
20260506190410 13 187 0.0 0.0 0.00 0.00 0.00 86 1015.2
20260506185907 13 178 0.0 0.0 0.00 0.00 0.00 86 1015.0
20260506185404 13 169 0.0 0.0 0.00 0.00 0.00 86 1014.7
20260506184901 13 174 0.0 0.0 0.00 0.00 0.00 86 1014.8
20260506184358 13 171 0.0 0.0 0.00 0.00 0.00 86 1014.9
20260506183855 13 183 0.0 0.0 0.00 0.00 0.00 87 1015.0
20260506183350 13 160 0.0 0.0 0.00 0.00 0.00 85 1014.5
20260506182848 13 186 0.0 0.0 0.00 0.00 0.00 87 1014.8
20260506182345 13 192 0.0 0.0 0.00 0.00 0.00 86 1014.7
20260506181842 13 189 0.0 0.0 0.00 0.00 0.00 87 1014.2
20260506181340 13 185 0.0 0.0 0.00 0.00 0.00 86 1013.6
20260506180837 13 176 0.0 0.0 0.00 0.00 0.00 87 1013.5
20260506180333 13 199 0.0 1.6 0.00 0.00 0.00 88 1013.3
20260506175829 13 191 0.0 0.0 0.00 0.00 0.00 89 1013.4
20260506175326 13 205 0.0 0.0 0.00 0.00 0.00 88 1013.3
20260506174823 13 173 0.0 0.0 0.00 0.00 0.00 88 1013.7
20260506174321 13 187 0.0 0.0 0.00 0.00 0.00 89 1014.0
20260506173818 13 192 0.0 0.0 0.00 0.00 0.00 89 1014.3
20260506173315 13 118 0.0 3.2 0.00 0.00 0.00 90 1014.0
20260506172812 13 177 0.0 0.0 0.00 0.00 0.00 91 1014.4
20260506172308 13 216 0.0 0.0 0.00 0.00 0.00 90 1014.7
20260506171806 12 173 0.0 0.0 0.00 0.00 0.00 90 1015.0
20260506171303 12 188 0.0 0.0 0.00 0.00 0.00 92 1015.0
20260506170801 12 187 0.0 0.0 0.00 0.00 0.00 91 1014.7
20260506170257 12 183 0.0 0.0 0.00 0.00 0.00 92 1015.1
20260506165755 12 177 0.0 0.0 0.00 0.00 0.00 91 1014.8
20260506165252 12 189 0.0 0.0 0.00 0.00 0.00 90 1014.3
20260506164749 12 203 0.0 0.0 0.00 0.00 0.00 90 1014.0
20260506164246 13 199 0.0 0.0 0.00 0.00 0.00 90 1014.6
20260506163743 13 103 0.0 0.0 0.00 0.00 0.00 90 1014.5
20260506163238 13 192 0.0 0.0 0.00 0.00 0.00 90 1014.4
20260506162734 13 194 0.0 0.0 0.00 0.00 0.00 90 1014.6
20260506162232 13 184 0.0 0.0 0.00 0.00 0.00 90 1014.9
20260506161729 13 169 0.0 0.0 0.00 0.00 0.00 91 1014.8
20260506161226 12 181 0.0 0.0 0.00 0.00 0.00 92 1015.0
20260506160724 12 14 0.0 0.0 0.00 0.00 0.00 92 1015.1
20260506160220 12 138 0.0 0.0 0.00 0.00 0.00 92 1015.1
20260506155719 12 168 0.0 0.0 0.00 0.00 0.00 92 1015.2
20260506155216 12 183 0.0 0.0 0.00 0.00 0.00 93 1015.1
20260506153324 12 181 0.0 0.0 0.00 0.00 0.00 91 1014.8
20260506152821 12 98 1.6 1.6 0.00 0.00 0.00 89 1014.8
20260506152318 12 206 0.0 0.0 0.00 0.00 0.00 85 1015.9
20260506151817 12 189 0.0 0.0 0.00 0.00 0.00 85 1016.4
20260506151313 13 176 1.6 1.6 0.00 0.00 0.00 85 1016.4
20260506150810 13 188 0.0 0.0 0.00 0.00 0.00 85 1015.9
20260506150307 13 188 0.0 0.0 0.00 0.00 0.00 85 1015.6
20260506145804 13 189 0.0 0.0 0.00 0.00 0.00 85 1015.2
20260506145300 12 192 0.0 0.0 0.00 0.00 0.00 86 1015.0
20260506144758 12 192 0.0 0.0 0.00 0.00 0.00 85 1015.1
20260506144254 12 177 1.6 1.6 0.00 0.00 0.00 84 1014.3
20260506143752 12 186 0.0 0.0 0.00 0.00 0.00 85 1014.7
20260506143249 12 179 0.0 0.0 0.00 0.00 0.00 84 1014.6
20260506142748 12 181 0.0 0.0 0.00 0.00 0.00 84 1014.9
20260506142245 12 175 0.0 0.0 0.00 0.00 0.00 84 1014.4
20260506141743 12 176 0.0 0.0 0.00 0.00 0.00 84 1014.6
20260506141241 12 193 0.0 0.0 0.00 0.00 0.00 84 1014.5
20260506140738 12 140 0.0 1.6 0.00 0.00 0.00 84 1014.5
20260506140235 12 191 0.0 0.0 0.00 0.00 0.00 84 1014.6
20260506135732 12 200 0.0 0.0 0.00 0.00 0.00 84 1014.2
20260506135228 12 189 0.0 0.0 0.00 0.00 0.00 84 1014.1
20260506134725 12 188 0.0 0.0 0.00 0.00 0.00 84 1013.9
20260506134222 12 174 3.2 3.2 0.00 0.00 0.00 83 1014.2
20260506133719 13 189 0.0 0.0 0.00 0.00 0.00 83 1014.1
20260506133215 13 188 0.0 0.0 0.00 0.00 0.00 83 1014.1
20260506132713 12 192 0.0 0.0 0.00 0.00 0.00 83 1014.0
20260506132209 13 198 0.0 0.0 0.00 0.00 0.00 83 1013.9
20260506131708 13 195 0.0 0.0 0.00 0.00 0.00 82 1013.4
20260506131203 13 187 0.0 0.0 0.00 0.00 0.00 83 1013.4
20260506130700 13 176 0.0 0.0 0.00 0.00 0.00 82 1013.4
20260506130157 13 176 0.0 1.6 0.00 0.00 0.00 82 1013.7
20260506125655 13 187 0.0 0.0 0.00 0.00 0.00 81 1013.6
20260506125153 13 190 0.0 0.0 0.00 0.00 0.00 82 1013.6
20260506124650 13 192 0.0 0.0 0.00 0.00 0.00 81 1013.4
20260506124149 13 194 0.0 0.0 0.00 0.00 0.00 81 1013.2
20260506123646 13 187 0.0 0.0 0.00 0.00 0.00 81 1013.0
20260506123144 13 186 0.0 0.0 0.00 0.00 0.00 80 1013.2
20260506122641 13 187 0.0 0.0 0.00 0.00 0.00 81 1013.0
20260506122138 13 206 0.0 0.0 0.00 0.00 0.00 80 1012.9
20260506121636 13 183 0.0 0.0 0.00 0.00 0.00 80 1012.8
20260506121132 13 196 0.0 0.0 0.00 0.00 0.00 80 1012.7